Weather in Dubinino

Russia / Krasnoyarsk Krai     55°37′30″N   89°05′36″E
temp.,
°C
wind,
m/s
gust,
m/s
humid.,
%
clouds,
%
prec.,
mm/h
press.,
hPa
HPBL,
m
13 may, thu
thu1301:00+10se22505 0.0 101417
04:00+9se22564 0.0 101413
07:00+11se23535 0.0 101498
10:00+18se34335 0.0 1013976
13:00+20ese332647 0.0 10122709
16:00+19nw332985 0.0 10122051
19:00+17w554289 0.0 1012428
22:00+13sw3756100 0.1 1012137
14 may, fri
fri1401:00+11sw236492 0.1 101239
04:00+10w347091 0.0 101266
07:00+10wnw5880100 0.2 1014384
10:00+13nw5764100 0.4 10141228
13:00+15nw9114174 0.6 10152150
16:00+12nw710425 0.1 10171693
19:00+12nw683380 0.1 10191770
22:00+8wnw3745100 0.0 1021178
15 may, sat
sat1501:00+7wsw475091 0.0 1022155
04:00+8wsw51145100 0.0 1021396
07:00+10wsw8154184 0.0 1020679
10:00+12wsw91639100 0.1 1019940
13:00+15wsw12174363 0.2 10181120
16:00+15wsw101646100 0.0 10171079
19:00+16wsw101550100 0.0 10161058
22:00+16wsw91846100 0.1 1014778
16 may, sun
sun1601:00+15w91655100 0.1 1014827
04:00+13w51368100 0.0 1014580
07:00+13w41065100 0.0 1014531
10:00+17w6854100 0.1 1013983
13:00+16w61165100 0.5 10121239
16:00+17nnw6870100 0.8 1011928
19:00+13nne228475 2.4 1012491
22:00+12nnw1282100 0.0 101378
17 may, mon
mon1701:00+12w2585100 0.0 1012177
04:00+11sw31092100 0.0 1010243
07:00+15wsw8168190 0.1 1008796
10:00+20wsw10165998 0.0 10061252
13:00+23wsw12195298 0.3 10042271
16:00+25wnw11194356 0.6 10012940
19:00+15n71086100 2.8 1006834
22:00+10nnw6877100 0.2 10101029